Regional Weather Roundup
Issued by NWS Kansas City/Pleasant Hill, MO

Home | Current Version | Previous Version | Graphics & Text | Print | Product List | Glossary Off
Versions: 1 2 3 4 5 6 7 8 9 10 11 12 13 14 15 16 17 18 19 20 21 22 23 24 25 26 27

000
ASUS43 KEAX 251310
RWREAX

WEATHER ROUNDUP FOR EASTERN KANSAS AND NORTHWEST MISSOURI
NATIONAL WEATHER SERVICE KANSAS CITY/PLEASANT HILL MO
800 AM CDT SUN SEP 25 2016

KSZ040-057-103>105-MOZ028-029-037-043-251400-
...KANSAS CITY METROPOLITAN AREA...

CITY           SKY/WX    TMP DP  RH WIND       PRES   REMARKS
K.C. INTL      LGT RAIN  68  65  90 SW7       30.06R
K.C. DOWNTOWN  LGT RAIN  70  67  90 SW6       30.07R
LEES SUMMIT    RAIN      68  66  93 SW8       30.09R FOG
OLATHE - IXD   LGT RAIN  68  67  96 SW7       30.10R
OLATHE - OJC   LGT RAIN  67  66  97 SW3       30.09R
LAWRENCE       LGT RAIN  68  68 100 S5        30.09R

$$

MOZ001>008-011>017-020>025-030>033-038>040-044>046-053-054-251400-
...NORTHERN AND CENTRAL MISSOURI...

CITY           SKY/WX    TMP DP  RH WIND       PRES   REMARKS
ST. JOSEPH     CLOUDY    68  67  96 W6        30.07R
MOSBY          MOSUNNY   68  68 100 CALM      30.06R
WHITEMAN AFB   CLOUDY    70  70 100 SW5       30.06R
CLINTON        CLOUDY    68  68 100 CALM      30.07R
SEDALIA        MOSUNNY   71  67  87 SW3       30.07R
WARSAW         NOT AVBL
CHILLICOTHE      N/A     71  67  87 CALM      30.06R
KIRKSVILLE     SUNNY     70  68  93 SW5       30.04R

$$

MOZ041-047>049-056>058-063>065-088>090-097-251400-
...EASTERN AND SOUTHERN MISSOURI...

CITY           SKY/WX    TMP DP  RH WIND       PRES   REMARKS
ST. LOUIS INTL MOSUNNY   76  67  73 S6        30.06R
SPIRIT OF STL  MOSUNNY   69  69 100 CALM      30.05R
COLUMBIA       MOSUNNY   69  68  96 S6        30.06R
JEFFERSON CITY CLOUDY    69  68  96 CALM      30.05R
ROLLA          CLOUDY    72  67  84 SW8       30.08R
OSAGE BEACH    CLOUDY    68  67  96 CALM      30.08R
SPRINGFIELD    SUNNY     69  65  86 SE5       30.09R
BRANSON        PTSUNNY   66  66 100 CALM      30.11R
JOPLIN         PTCLDY    70  65  84 CALM      30.09R
WEST PLAINS    CLOUDY    69  65  86 CALM      30.12R FOG

$$

IAZ060-094-KSZ022-034>040-054-083-096-NEZ052-066-093-251400-
...KANSAS...SOUTHEAST NEBRASKA AND IOWA...

CITY           SKY/WX    TMP DP  RH WIND       PRES   REMARKS
TOPEKA         LGT RAIN  68  66  93 SW6       30.08R
MANHATTAN      CLOUDY    61  50  67 N8        30.13R
EMPORIA        HVY RAIN  67  66  97 CALM      30.11R FOG
CHANUTE        LGT RAIN  69  67  93 CALM      30.11R
WICHITA        LGT RAIN  68  68 100 NW20G28   30.10R
OMAHA          CLOUDY    59  49  69 NW13      30.10R
LINCOLN        CLOUDY    57  47  69 NW6       30.15R
FALLS CITY     CLOUDY    62  59  90 NW9       30.09R
LAMONI         MOCLDY    69  67  93 W10       30.03R
DES MOINES     LGT RAIN  69  68  96 S5        29.98R

$$





USA.gov is the U.S. government's official web portal to all federal, state and local government web resources and services.